Location: Detroit
(42.3310°N, 83.0460°W)
Time: 20:10:56
(UTC-04:00)

A-11 Canister half - Pass Details

Date: 14 February 2023
Orbit: 1526 x 1682 km, 47.3° (Epoch: 29 March)

Event Time Altitude Azimuth Distance (km) Brightness Sun altitude
Rises 05:54:09 0° 272° (W) 4,687 - -18.3°
Reaches altitude 10° 05:57:15 10° 275° (W) 3,698 - -17.8°
Exits shadow 06:00:09 23° 281° (W) 2,816 9.8 -17.2°
Maximum altitude 06:06:30 65° 357° (N) 1,654 9.1 -16.0°
Drops below altitude 10° 06:15:49 10° 79° (E) 3,726 12.3 -14.3°
Sets 06:18:57 0° 83° (E) 4,725 13.3 -13.7°
